Date String (YYYY-MM-DD hh:mm:ss) UTC,Instrument flags,Ambient pressure (hPa),Sample flow (lpm),Bypass flow (lpm),Sample temperature (°C),Ambient temperature (°C),ASC tube jacket temperature (°C),LED temperature (°C),Box temperature (°C),Sample RH (%),Span deviation,Mass concentration (μg/m³),Mass concentration (μg/m³),Mass concentration (μg/m³)
DateTimeUTC,F1_M11,P_M11,Q1_M11,Q2_M11,T1_M11,T2_M11,T3_M11,T4_M11,T5_M11,U1_M11,ZSPAN_M11,X0_M11,X2_M11,X1_M11
2022-09-04 13:00:00,,0831.7,5.01,0.00,30.7,29.5,00.0,39.4,32.5,20.1,0000.0,0015.35,0008.12,0006.98
2022-09-04 13:01:00,,0831.7,5.00,0.00,30.7,29.6,00.0,39.5,32.5,20.1,0000.0,0015.96,0008.10,0006.98
2022-09-04 13:02:00,,0831.7,4.99,0.00,30.7,29.2,00.0,39.5,32.5,20.1,0000.0,0016.14,0008.05,0006.97
2022-09-04 13:03:00,,0831.7,5.00,0.00,30.7,27.8,00.0,39.4,32.3,20.1,0000.0,0015.07,0007.87,0006.94
2022-09-04 13:04:00,,0831.7,5.00,0.00,30.6,27.3,00.0,39.4,32.3,20.1,0000.0,0014.29,0007.81,0006.89
2022-09-04 13:05:00,,0831.7,5.00,0.00,30.5,27.4,00.0,39.3,32.2,20.1,0000.0,0013.14,0007.71,0006.85
2022-09-04 13:06:00,,0831.8,4.99,0.00,30.5,27.7,00.0,39.3,32.1,20.3,0000.0,0013.73,0007.64,0006.82
2022-09-04 13:07:00,,0831.7,5.01,0.00,30.4,28.0,00.0,39.3,32.0,20.3,0000.0,0014.20,0007.64,0006.79
2022-09-04 13:08:00,,0831.7,5.00,0.00,30.4,28.2,00.0,39.3,32.0,20.3,0000.0,0014.16,0007.59,0006.74
2022-09-04 13:09:00,,0831.7,5.00,0.00,30.4,28.4,00.0,39.2,32.0,20.3,0000.0,0014.14,0007.56,0006.71
2022-09-04 13:10:00,,0831.7,5.01,0.00,30.4,28.6,00.0,39.2,32.1,20.3,0000.0,0014.23,0007.54,0006.68
2022-09-04 13:11:00,,0831.7,5.00,0.00,30.4,28.7,00.0,39.2,32.1,20.2,0000.0,0014.83,0007.45,0006.63
2022-09-04 13:12:00,,0831.7,4.98,0.00,30.4,28.8,00.0,39.2,32.1,20.1,0000.0,0014.33,0007.38,0006.60
2022-09-04 13:13:00,,0831.7,5.00,0.00,30.4,28.9,00.0,39.2,32.1,20.0,0000.0,0013.47,0007.26,0006.56
2022-09-04 13:14:00,,0831.7,5.01,0.00,30.4,29.0,00.0,39.2,32.1,20.1,0000.0,0013.24,0007.18,0006.52
2022-09-04 13:15:00,,0831.7,4.99,0.00,30.4,29.1,00.0,39.2,32.1,20.1,0000.0,0013.01,0007.11,0006.49
2022-09-04 13:16:00,,0831.7,5.01,0.00,30.4,29.1,00.0,39.2,32.2,19.9,0000.0,0013.10,0007.15,0006.47
2022-09-04 13:17:00,,0831.8,5.01,0.00,30.4,29.2,00.0,39.2,32.2,19.9,0000.0,0012.92,0007.12,0006.44
2022-09-04 13:18:00,,0831.8,4.99,0.00,30.4,29.2,00.0,39.2,32.2,19.9,0000.0,0012.76,0007.05,0006.41
2022-09-04 13:19:00,,0831.9,5.00,0.00,30.4,29.2,00.0,39.2,32.2,19.9,0000.0,0012.98,0007.04,0006.38
2022-09-04 13:20:00,,0831.8,5.01,0.00,30.5,29.2,00.0,39.2,32.3,20.1,0000.0,0013.03,0007.07,0006.36
2022-09-04 13:21:00,,0831.8,4.99,0.00,30.5,29.3,00.0,39.2,32.3,20.1,0000.0,0012.90,0007.06,0006.35
2022-09-04 13:22:00,,0831.8,5.01,0.00,30.5,29.3,00.0,39.3,32.3,20.2,0000.0,0012.04,0007.07,0006.34
2022-09-04 13:23:00,,0831.8,4.99,0.00,30.5,29.4,00.0,39.3,32.3,20.6,0000.0,0011.97,0007.11,0006.32
2022-09-04 13:24:00,,0831.9,5.01,0.00,30.5,29.4,00.0,39.3,32.3,20.6,0000.0,0012.20,0007.17,0006.32
2022-09-04 13:25:00,,0831.9,5.01,0.00,30.5,29.4,00.0,39.3,32.4,20.8,0000.0,0012.34,0007.20,0006.33
2022-09-04 13:26:00,,0831.9,4.99,0.00,30.6,29.4,00.0,39.3,32.4,21.1,0000.0,0012.35,0007.22,0006.33
2022-09-04 13:27:00,,0832.0,5.01,0.00,30.6,29.5,00.0,39.3,32.4,21.0,0000.0,0012.86,0007.25,0006.34
2022-09-04 13:28:00,,0832.0,4.99,0.00,30.6,29.5,00.0,39.3,32.4,20.7,0000.0,0012.78,0007.28,0006.35
2022-09-04 13:29:00,,0832.0,5.01,0.00,30.6,29.5,00.0,39.4,32.4,20.6,0000.0,0012.24,0007.29,0006.36
2022-09-04 13:30:00,,0832.0,4.99,0.00,30.6,29.5,00.0,39.4,32.4,20.8,0000.0,0012.02,0007.31,0006.38
2022-09-04 13:31:00,,0832.0,5.00,0.00,30.7,29.6,00.0,39.4,32.5,21.0,0000.0,0012.47,0007.37,0006.39
2022-09-04 13:32:00,,0832.0,5.01,0.00,30.7,29.6,00.0,39.4,32.5,20.7,0000.0,0012.97,0007.36,0006.39
2022-09-04 13:33:00,,0832.0,4.98,0.00,30.7,29.6,00.0,39.4,32.5,20.7,0000.0,0013.07,0007.40,0006.39
2022-09-04 13:34:00,,0831.9,5.01,0.00,30.7,28.7,00.0,39.4,32.5,20.9,0000.0,0013.71,0007.41,0006.39
2022-09-04 13:35:00,,0832.0,4.98,0.00,30.6,27.3,00.0,39.4,32.3,20.8,0000.0,0013.72,0007.37,0006.39
2022-09-04 13:36:00,,0832.0,5.01,0.00,30.6,27.0,00.0,39.3,32.2,20.7,0000.0,0013.95,0007.39,0006.39
2022-09-04 13:37:00,,0832.0,4.99,0.00,30.5,27.3,00.0,39.3,32.1,20.7,0000.0,0014.42,0007.40,0006.39
2022-09-04 13:38:00,,0832.0,5.01,0.00,30.4,27.6,00.0,39.2,32.0,20.7,0000.0,0014.07,0007.38,0006.37
2022-09-04 13:39:00,,0832.0,5.00,0.00,30.4,27.9,00.0,39.2,32.0,20.9,0000.0,0013.87,0007.36,0006.36
2022-09-04 13:40:00,,0832.0,4.99,0.00,30.3,28.2,00.0,39.2,32.0,21.1,0000.0,0014.34,0007.37,0006.36
2022-09-04 13:41:00,,0832.0,5.01,0.00,30.3,28.4,00.0,39.2,32.0,21.2,0000.0,0015.08,0007.38,0006.36
2022-09-04 13:42:00,,0831.9,5.00,0.00,30.3,28.6,00.0,39.1,32.0,21.3,0000.0,0014.71,0007.34,0006.35
2022-09-04 13:43:00,,0831.9,5.01,0.00,30.3,28.7,00.0,39.1,32.0,20.8,0000.0,0014.41,0007.36,0006.36
2022-09-04 13:44:00,,0832.0,5.01,0.00,30.3,28.8,00.0,39.1,32.0,20.9,0000.0,0014.24,0007.30,0006.37
2022-09-04 13:45:00,,0832.0,4.98,0.00,30.3,28.9,00.0,39.1,32.1,20.8,0000.0,0014.33,0007.30,0006.38
2022-09-04 13:46:00,,0832.0,5.01,0.00,30.3,28.9,00.0,39.1,32.1,20.8,0000.0,0014.56,0007.34,0006.41
2022-09-04 13:47:00,,0832.0,5.01,0.00,30.3,29.0,00.0,39.1,32.1,20.9,0000.0,0014.34,0007.34,0006.44
2022-09-04 13:48:00,,0831.9,4.99,0.00,30.3,29.1,00.0,39.1,32.1,20.9,0000.0,0014.11,0007.35,0006.46
2022-09-04 13:49:00,,0832.0,5.00,0.00,30.4,29.1,00.0,39.1,32.2,20.7,0000.0,0013.92,0007.31,0006.47
2022-09-04 13:50:00,,0832.0,5.01,0.00,30.4,29.2,00.0,39.1,32.2,21.0,0000.0,0013.98,0007.34,0006.48
2022-09-04 13:51:00,,0831.9,4.99,0.00,30.4,29.2,00.0,39.2,32.2,20.9,0000.0,0013.54,0007.38,0006.50
2022-09-04 13:52:00,,0831.9,5.01,0.00,30.4,29.2,00.0,39.2,32.2,20.8,0000.0,0012.83,0007.38,0006.53
2022-09-04 13:53:00,,0831.8,5.00,0.00,30.4,29.3,00.0,39.2,32.2,20.8,0000.0,0013.02,0007.37,0006.56
2022-09-04 13:54:00,,0831.9,5.00,0.00,30.5,29.3,00.0,39.2,32.3,20.6,0000.0,0012.96,0007.38,0006.58
2022-09-04 13:55:00,,0831.9,5.00,0.00,30.5,29.4,00.0,39.2,32.3,20.7,0000.0,0012.94,0007.42,0006.60
2022-09-04 13:56:00,,0831.9,4.99,0.00,30.5,29.4,00.0,39.2,32.3,20.8,0000.0,0011.89,0007.38,0006.60
2022-09-04 13:57:00,,0831.9,5.01,0.00,30.5,29.4,00.0,39.3,32.3,20.8,0000.0,0012.09,0007.33,0006.59
2022-09-04 13:58:00,,0831.9,5.00,0.00,30.5,29.4,00.0,39.3,32.4,20.8,0000.0,0012.09,0007.33,0006.60
2022-09-04 13:59:00,,0831.9,4.98,0.00,30.6,28.7,00.0,39.3,32.3,21.0,0000.0,0012.46,0007.31,0006.59
